Regional Weather Roundup
Issued by NWS

Home | Current Version | Previous Version | Text Only | Print | Product List | Glossary On
Versions: 1 2 3 4 5 6 7 8 9 10 11 12 13 14 15 16 17 18 19 20 21 22 23 24 25 26 27 28 29 30 31 32 33 34 35 36 37 38 39 40 41 42 43 44 45 46 47 48 49 50
000
ASUS43 KLMK 041510
RWRKY
KENTUCKY REGIONAL WEATHER ROUNDUP
NATIONAL WEATHER SERVICE LOUISVILLE KY
1100 AM EDT SAT JUL 04 2015

NOTE "FAIR" INDICATES FEW OR NO CLOUDS BELOW 12,000 FEET
WITH NO SIGNIFICANT WEATHER AND/OR OBSTRUCTIONS TO VISIBILITY.

KYZ001>023-026-027-061>063-070>075-041600-
WESTERN AND SOUTH CENTRAL KENTUCKY

CITY           SKY/WX    TMP DP  RH WIND       PRES   REMARKS
PADUCAH        CLOUDY    74  69  85 SE6       30.00R HAZE
HENDERSON      SUNNY     73  64  73 NE6       29.99S
OWENSBORO      PTSUNNY   74  68  81 CALM      30.01S
HOPKINSVILLE   PTSUNNY   75  70  83 VRB3      30.00R
BOWLING GREEN  CLOUDY    76  68  76 SW3       30.01R
GLASGOW        PTSUNNY   75  67  75 CALM      30.01R
$$

KYZ024-025-028>034-038-045-046-053-041600-
NORTH CENTRAL KENTUCKY

CITY           SKY/WX    TMP DP  RH WIND       PRES   REMARKS
LOUISVILLE/SDF CLOUDY    75  65  70 E3        30.00R
LOUISVILLE/LOU CLOUDY    75  65  70 E5        30.01R
FORT KNOX      LGT RAIN  73  68  83 NE5       30.00R
$$

KYZ035>037-039>044-047>052-055>060-089>105-041600-
NORTHEAST KENTUCKY

CITY           SKY/WX    TMP DP  RH WIND       PRES   REMARKS
LEXINGTON      CLOUDY    73  67  81 N5        30.02R HAZE
COVINGTON      PTSUNNY   74  61  63 N7        30.02R
FRANKFORT      CLOUDY    73  65  75 VRB3      30.01R
$$

KYZ054-064>069-076>088-106>120-041600-
SOUTHEAST KENTUCKY

CITY           SKY/WX    TMP DP  RH WIND       PRES   REMARKS
JACKSON        CLOUDY    71  67  87 VRB3      30.02R
LONDON         PTSUNNY   75  65  70 SW5       30.02S
SOMERSET       CLOUDY    72  64  78 CALM      30.03R
MIDDLESBORO    CLOUDY    73  69  87 CALM      30.03S
MONTICELLO     CLOUDY    73  72  94 W3        30.05S
$$




USA.gov is the U.S. government's official web portal to all federal, state and local government web resources and services.